Weather in Russkiy Kukmor

Russia / Mari El Republic     56°40′05″N   48°08′19″E
temp.,
°C
wind,
m/s
gust,
m/s
humid.,
%
clouds,
%
prec.,
mm/h
press.,
hPa
HPBL,
m
25 february, thu
thu2500:00−24ssw129690 0.0 103420
03:00−25s339788 0.0 103339
06:00−22s4896100 0.0 1029222
09:00−20sse61094100 0.0 1026285
12:00−17sse71295100 0.4 1022436
15:00−16sse61194100 1.3 1020603
18:00−16sse61195100 1.1 1018567
21:00−17se5109399 1.3 1017392
26 february, fri
fri2600:00−17se599595 0.1 1017372
03:00−18se489494 0.1 1017322
06:00−20se499791 0.1 1016220
09:00−18se599493 0.1 1016329
12:00−15se5892100 0.0 1014426
15:00−14se71192100 0.1 1012492
18:00−10se81494100 0.8 1003424
21:00−9se81594100 4.1 998483
27 february, sat
sat2700:00−7se61195100 4.3 994384
03:00−6ese3496100 7.1 993134
06:00−7ne2297100 1.6 99282
09:00−8ne4695100 2.2 993220
12:00−8ne5794100 0.4 995384
15:00−10nne5894100 1.3 997500
18:00−10nne61094100 0.9 999567
21:00−13n51192100 1.1 1002415
28 february, sun
sun2800:00−15n5119599 0.0 1003298
03:00−18n5109698 0.1 1005242
06:00−21n4109764 0.0 1007211
09:00−19n599343 0.0 1008327
12:00−16n599181 0.0 1010435
15:00−14n699090 0.0 1012546
18:00−17n41095100 0.0 1014225
21:00−19n499787 0.0 1016161
1 march, mon
mon100:00−21n47982 0.0 101891
03:00−22n479818 0.0 102095
06:00−23n34980 0.0 102261
09:00−20n35960 0.0 1023175
12:00−15nnw238759 0.0 1023306
15:00−12wnw238768 0.0 1022332
18:00−16sw239531 0.0 102122
21:00−13sw489765 0.0 1019194